Weyers Cave, VA

2:54 PM EDT on July 28, 2016 (GMT -0400)
Shenandoah Valley Regional

Weather History for KSHD - November, 2012

Change the Weather History Date:

Wednesday, November 7, 2012

  Actual Average Record
Temperature  
Mean Temperature 39 °F -  
Max Temperature 44 °F 58 °F 75 °F (2008)
Min Temperature 35 °F 35 °F 23 °F (2010)
Degree Days  
Heating Degree Days 26    
Moisture  
Dew Point 28 °F    
Average Humidity 64    
Maximum Humidity 79    
Minimum Humidity 51    
Precipitation  
Precipitation 0.00 in - - ()
Sea Level Pressure  
Sea Level Pressure 29.94 in    
Wind  
Wind Speed 5 mph (NNE)    
Max Wind Speed 12 mph    
Max Gust Speed -    
Visibility 10 miles    
Events      
Averages and records for this station are not official NWS values.
T = Trace of Precipitation, MM = Missing Value Source: NWS Daily Summary

Daily Weather History Graph

Daily Weather History Graph

Search for Another Location

Airport or City:

Trip Planner

Search our weather history database for the weather conditions in past years. The results will help you decide how hot, cold, wet, or windy it might be!

Date:

Astronomy

Nov. 07, 2012 Rise Set
Actual Time 6:48 AM EST 5:09 PM EST
Civil Twilight 6:20 AM EST 5:37 PM EST
Nautical Twilight 5:49 AM EST 6:08 PM EST
Astronomical Twilight 5:18 AM EST 6:39 PM EST
Moon No Moon Rise 1:12 PM EST (11/7)
Length of Visible Light 11h 16m
Length of Day
10h 20m
Last Quarter, 43% of the Moon is Illuminated
Nov 7
Last Quarter
Nov 13
New
Nov 20
First Quarter
Nov 28
Full
Dec 6
Last Quarter

Hourly Weather History & Observations

Time (EST) Temp. Windchill Dew Point Humidity Pressure Visibility Wind Dir Wind Speed Gust Speed Precip Events Conditions
12:15 AM 37.0 °F 34.5 °F 29.3 °F 74% 29.98 in 10.0 mi North 3.5 mph - N/A   Clear
12:35 AM 36.9 °F - 29.3 °F 74% 29.98 in 10.0 mi Calm Calm - N/A   Scattered Clouds
12:55 AM 36.1 °F - 30.2 °F 79% 29.98 in 10.0 mi Calm Calm - N/A   Mostly Cloudy
1:15 AM 36.5 °F - 28.9 °F 74% 29.98 in 10.0 mi Calm Calm - N/A   Mostly Cloudy
1:35 AM 36.5 °F 33.9 °F 28.8 °F 74% 29.97 in 10.0 mi NNW 3.5 mph - N/A   Mostly Cloudy
1:55 AM 36.1 °F 33.5 °F 29.1 °F 76% 29.96 in 10.0 mi NNW 3.5 mph - N/A   Overcast
2:15 AM 36.5 °F 31.8 °F 27.5 °F 70% 29.94 in 10.0 mi North 5.8 mph - N/A   Mostly Cloudy
2:35 AM 36.5 °F - 27.7 °F 70% 29.95 in 10.0 mi Calm Calm - N/A   Overcast
2:55 AM 36.5 °F - 27.5 °F 70% 29.94 in 10.0 mi Calm Calm - N/A   Overcast
3:15 AM 36.5 °F - 27.3 °F 69% 29.94 in 10.0 mi Calm Calm - N/A   Overcast
3:55 AM 36.1 °F 33.5 °F 27.1 °F 70% 29.93 in 10.0 mi NNW 3.5 mph - N/A   Overcast
4:15 AM 36.0 °F 31.1 °F 27.3 °F 71% 29.94 in 10.0 mi NNE 5.8 mph - N/A   Overcast
4:35 AM 36.1 °F 32.3 °F 27.0 °F 69% 29.94 in 10.0 mi North 4.6 mph - N/A   Overcast
4:55 AM 36.0 °F 31.1 °F 26.6 °F 69% 29.93 in 10.0 mi NNE 5.8 mph - N/A   Overcast
5:15 AM 35.6 °F 32.8 °F 27.3 °F 72% 29.93 in 10.0 mi NNE 3.5 mph - N/A   Overcast
5:35 AM 35.8 °F 31.9 °F 27.1 °F 71% 29.92 in 10.0 mi NNE 4.6 mph - N/A   Overcast
5:55 AM 35.6 °F 32.8 °F 27.5 °F 72% 29.92 in 10.0 mi North 3.5 mph - N/A   Mostly Cloudy
6:15 AM 35.6 °F 32.8 °F 27.3 °F 72% 29.93 in 10.0 mi NNE 3.5 mph - N/A   Overcast
6:35 AM 35.1 °F 31.0 °F 27.1 °F 73% 29.93 in 10.0 mi NNE 4.6 mph - N/A   Mostly Cloudy
6:55 AM 35.2 °F 32.4 °F 27.3 °F 73% 29.94 in 10.0 mi NNE 3.5 mph - N/A   Overcast
7:15 AM 35.2 °F 31.2 °F 27.5 °F 73% 29.95 in 10.0 mi NNE 4.6 mph - N/A   Overcast
7:35 AM 35.6 °F 31.7 °F 28.0 °F 74% 29.96 in 10.0 mi NNE 4.6 mph - N/A   Overcast
7:55 AM 35.8 °F 31.9 °F 28.4 °F 75% 29.96 in 10.0 mi NE 4.6 mph - N/A   Overcast
8:15 AM 36.5 °F 31.8 °F 28.0 °F 71% 29.96 in 10.0 mi NNE 5.8 mph - N/A   Overcast
8:35 AM 37.8 °F 32.5 °F 28.6 °F 69% 29.96 in 10.0 mi NNE 6.9 mph - N/A   Overcast
8:55 AM 39.0 °F 33.4 °F 28.4 °F 66% 29.96 in 10.0 mi NNE 8.1 mph - N/A   Overcast
9:15 AM 38.5 °F 32.7 °F 27.5 °F 65% 29.95 in 10.0 mi NNE 8.1 mph - N/A   Overcast
9:35 AM 38.3 °F 33.2 °F 27.5 °F 65% 29.95 in 10.0 mi NNE 6.9 mph - N/A   Overcast
9:55 AM 38.5 °F 34.1 °F 27.1 °F 64% 29.94 in 10.0 mi North 5.8 mph - N/A   Overcast
10:15 AM 38.7 °F 33.6 °F 27.3 °F 64% 29.94 in 10.0 mi NNE 6.9 mph - N/A   Overcast
10:35 AM 38.7 °F 32.4 °F 26.8 °F 62% 29.94 in 10.0 mi NNE 9.2 mph - N/A   Overcast
10:55 AM 39.2 °F 33.6 °F 26.8 °F 61% 29.94 in 10.0 mi NNE 8.1 mph - N/A   Overcast
11:15 AM 40.3 °F 34.9 °F 27.3 °F 60% 29.93 in 10.0 mi North 8.1 mph - N/A   Overcast
11:35 AM 40.5 °F 34.1 °F 26.4 °F 57% 29.93 in 10.0 mi North 10.4 mph - N/A   Overcast
11:55 AM 41.0 °F 35.8 °F 26.2 °F 56% 29.92 in 10.0 mi North 8.1 mph - N/A   Overcast
12:15 PM 41.0 °F 36.4 °F 26.4 °F 56% 29.91 in 10.0 mi NNE 6.9 mph - N/A   Overcast
12:35 PM 42.6 °F 39.9 °F 27.1 °F 54% 29.91 in 10.0 mi North 4.6 mph - N/A   Overcast
12:55 PM 43.9 °F 38.3 °F 27.0 °F 51% 29.90 in 10.0 mi North 10.4 mph - N/A   Overcast
1:15 PM 43.9 °F 39.3 °F 27.1 °F 52% 29.90 in 10.0 mi North 8.1 mph - N/A   Overcast
1:35 PM 43.2 °F 37.4 °F 26.6 °F 52% 29.90 in 10.0 mi NNE 10.4 mph - N/A   Overcast
1:55 PM 42.4 °F 37.0 °F 27.0 °F 54% 29.89 in 10.0 mi NNE 9.2 mph - N/A   Overcast
2:15 PM 42.3 °F 36.8 °F 26.6 °F 54% 29.89 in 10.0 mi North 9.2 mph - N/A   Overcast
2:35 PM 42.6 °F 37.2 °F 27.1 °F 54% 29.89 in 10.0 mi NNE 9.2 mph - N/A   Overcast
2:55 PM 43.3 °F 39.2 °F 28.2 °F 55% 29.89 in 10.0 mi NE 6.9 mph - N/A   Overcast
3:15 PM 43.2 °F 37.0 °F 28.0 °F 55% 29.90 in 10.0 mi NE 11.5 mph - N/A   Overcast
3:35 PM 42.8 °F 37.5 °F 27.3 °F 54% 29.90 in 10.0 mi NE 9.2 mph - N/A   Overcast
3:55 PM 42.4 °F 37.0 °F 26.6 °F 54% 29.91 in 10.0 mi NNE 9.2 mph - N/A   Overcast
4:15 PM 41.9 °F 37.5 °F 26.6 °F 55% 29.91 in 10.0 mi NE 6.9 mph - N/A   Overcast
4:35 PM 41.9 °F 36.9 °F 26.8 °F 55% 29.91 in 10.0 mi NNE 8.1 mph - N/A   Overcast
4:55 PM 41.5 °F 36.4 °F 27.0 °F 56% 29.92 in 10.0 mi NNE 8.1 mph - N/A   Overcast
5:15 PM 41.5 °F 36.4 °F 27.0 °F 56% 29.92 in 10.0 mi NNE 8.1 mph - N/A   Overcast
5:35 PM 41.0 °F 36.4 °F 27.5 °F 59% 29.93 in 10.0 mi NE 6.9 mph - N/A   Overcast
5:55 PM 41.0 °F 38.0 °F 27.1 °F 58% 29.93 in 10.0 mi NNE 4.6 mph - N/A   Overcast
6:15 PM 41.0 °F 36.4 °F 27.5 °F 59% 29.94 in 10.0 mi NNE 6.9 mph - N/A   Overcast
6:35 PM 41.0 °F 35.8 °F 27.3 °F 58% 29.95 in 10.0 mi NNE 8.1 mph - N/A   Overcast
6:55 PM 41.2 °F 36.6 °F 27.1 °F 57% 29.95 in 10.0 mi NNE 6.9 mph - N/A   Overcast
7:15 PM 41.0 °F 35.8 °F 27.3 °F 58% 29.95 in 10.0 mi NNE 8.1 mph - N/A   Overcast
7:35 PM 40.6 °F 37.5 °F 27.5 °F 59% 29.95 in 10.0 mi NNE 4.6 mph - N/A   Overcast
7:55 PM 40.1 °F 36.9 °F 27.9 °F 62% 29.95 in 10.0 mi NNE 4.6 mph - N/A   Overcast
8:15 PM 39.4 °F - 28.4 °F 65% 29.95 in 10.0 mi Calm Calm - N/A   Overcast
8:35 PM 39.2 °F - 28.6 °F 66% 29.96 in 10.0 mi Calm Calm - N/A   Overcast
8:55 PM 39.4 °F 37.2 °F 28.2 °F 64% 29.96 in 10.0 mi NE 3.5 mph - N/A   Overcast
9:15 PM 39.4 °F 35.2 °F 28.4 °F 65% 29.96 in 10.0 mi NE 5.8 mph - N/A   Overcast
9:35 PM 39.7 °F 36.5 °F 28.0 °F 63% 29.96 in 10.0 mi NNE 4.6 mph - N/A   Overcast
9:55 PM 39.2 °F 34.2 °F 28.0 °F 64% 29.96 in 10.0 mi NE 6.9 mph - N/A   Mostly Cloudy
10:15 PM 40.1 °F 35.3 °F 28.0 °F 62% 29.96 in 10.0 mi NNE 6.9 mph - N/A   Overcast
10:35 PM 41.2 °F 37.3 °F 27.1 °F 57% 29.96 in 10.0 mi NNE 5.8 mph - N/A   Overcast
10:55 PM 40.1 °F 38.0 °F 27.7 °F 61% 29.96 in 10.0 mi NNE 3.5 mph - N/A   Overcast
11:15 PM 40.1 °F 36.9 °F 27.5 °F 61% 29.96 in 10.0 mi North 4.6 mph - N/A   Overcast
11:35 PM 39.0 °F - 27.9 °F 64% 29.96 in 10.0 mi Calm Calm - N/A   Overcast
11:55 PM 38.3 °F - 28.2 °F 67% 29.96 in 10.0 mi Calm Calm - N/A   Overcast